START_TIME,STEP,MOV.,M29,t_acc.,H22,t_acc.,H26,t_acc.,H30,t_acc.
1979-08-02 12:00:30.720 ,0,0,0.,24.0,0.,24.0,0.,24.0,0.,24.0
1979-08-02 12:00:54.720 ,1,1,0.,24.0,0.,24.0,0.,24.0,0.,24.0
1979-08-02 12:01:18.720 ,1,0,0.,24.0,0.,24.0,0.,24.0,0.,24.0
1979-08-02 12:01:42.720 ,2,1,0.,24.0,0.,24.0,0.,24.0,0.,24.0
1979-08-02 12:02:06.720 ,2,0,0.,24.0,0.,24.0,0.,24.0,0.,24.0
1979-08-02 12:02:30.720 ,3,1,0.,24.0,0.,24.0,0.,24.0,0.,24.0
1979-08-02 12:02:54.720 ,3,0,0.,24.0,0.,24.0,0.,24.0,0.,24.0
1979-08-02 12:03:18.720 ,4,1,0.,24.0,0.,24.0,0.,24.0,0.,24.0
1979-08-02 12:03:42.720 ,4,0,0.,24.0,0.,24.0,0.,24.0,0.,24.0
1979-08-02 12:04:06.720 ,5,1,0.,24.0,0.,24.0,0.,24.0,0.,24.0
1979-08-02 12:04:30.720 ,5,0,0.,24.0,0.,24.0,0.,24.0,0.,24.0
1979-08-02 12:04:54.720 ,6,1,0.,24.0,0.,24.0,0.,24.0,0.,24.0
1979-08-02 12:05:18.720 ,6,0,0.,24.0,0.,24.0,0.,24.0,0.,24.0
1979-08-02 12:05:42.720 ,7,1,0.,24.0,0.,24.0,0.,24.0,0.,24.0
1979-08-02 12:06:06.720 ,7,0,0.,24.0,0.,24.0,0.,24.0,0.,24.0
1979-08-02 12:06:30.720 ,7,1,0.,24.0,0.,24.0,0.,24.0,0.,24.0
1979-08-02 12:06:54.720 ,7,0,0.,24.0,0.,24.0,0.,24.0,0.,24.0
1979-08-02 12:07:18.720 ,6,1,0.,24.0,0.,24.0,0.,24.0,0.,24.0
1979-08-02 12:07:42.720 ,6,0,0.,24.0,0.,24.0,0.,24.0,0.,24.0
1979-08-02 12:08:06.720 ,5,1,0.,24.0,0.,24.0,0.,24.0,0.,24.0
1979-08-02 12:08:30.720 ,5,0,0.,24.0,0.,24.0,0.,24.0,0.,24.0
1979-08-02 12:08:54.720 ,4,1,0.,24.0,0.,24.0,0.,24.0,0.,24.0
1979-08-02 12:09:18.720 ,4,0,0.,24.0,0.,24.0,0.,24.0,0.,24.0
1979-08-02 12:09:42.720 ,3,1,0.,24.0,0.,24.0,0.,24.0,0.,24.0
1979-08-02 12:10:06.720 ,3,0,0.,24.0,0.,24.0,0.,24.0,0.,24.0
1979-08-02 12:10:30.720 ,2,1,0.,24.0,0.,24.0,0.,24.0,0.,24.0
1979-08-02 12:10:54.720 ,2,0,0.,24.0,0.,24.0,0.,24.0,0.,24.0
1979-08-02 12:11:18.720 ,1,1,0.,24.0,0.,24.0,0.,24.0,0.,24.0
1979-08-02 12:11:42.720 ,1,0,0.,24.0,0.,24.0,0.,24.0,0.,24.0
1979-08-02 12:12:06.720 ,0,1,0.,24.0,0.,24.0,0.,24.0,0.,24.0
1979-08-02 12:12:30.720 ,0,0,0.,24.0,0.,24.0,0.,24.0,0.,24.0
1979-08-02 12:12:54.720 ,0,1,0.,24.0,0.,24.0,0.,24.0,0.,24.0
1979-08-02 12:13:18.720 ,0,0,0.,24.0,0.,24.0,0.,24.0,0.,24.0
1979-08-02 12:13:42.720 ,1,1,0.,24.0,0.,24.0,0.,24.0,0.,24.0
1979-08-02 12:14:06.720 ,1,0,0.,24.0,0.,24.0,0.,24.0,0.,24.0
1979-08-02 12:14:30.720 ,2,1,0.,24.0,0.,24.0,0.,24.0,0.,24.0
1979-08-02 12:14:54.720 ,2,0,0.,24.0,0.,24.0,0.,24.0,0.,24.0
1979-08-02 12:15:18.720 ,3,1,0.,24.0,0.,24.0,0.,24.0,0.,24.0
1979-08-02 12:15:42.720 ,3,0,0.,24.0,0.,24.0,0.,24.0,0.,24.0
1979-08-02 12:16:06.720 ,4,1,1.,24.0,0.,24.0,0.,24.0,0.,24.0
1979-08-02 12:16:30.720 ,4,0,0.,24.0,0.,24.0,0.,24.0,0.,24.0
1979-08-02 12:16:54.720 ,5,1,0.,24.0,0.,24.0,0.,24.0,0.,24.0
1979-08-02 12:17:18.710 ,5,0,0.,24.0,0.,24.0,0.,24.0,0.,24.0
1979-08-02 12:17:42.710 ,6,1,0.,24.0,0.,24.0,0.,24.0,0.,24.0
1979-08-02 12:18:06.710 ,6,0,0.,24.0,0.,24.0,0.,24.0,0.,24.0
1979-08-02 12:18:30.710 ,7,0,0.,24.0,0.,24.0,0.,24.0,0.,24.0
1979-08-02 12:18:54.710 ,7,0,0.,24.0,0.,24.0,0.,24.0,0.,24.0
1979-08-02 12:19:18.710 ,5,1,0.,24.0,0.,24.0,0.,24.0,0.,24.0
1979-08-02 12:19:42.710 ,1,1,0.,24.0,0.,24.0,0.,24.0,0.,24.0
1979-08-02 12:20:06.710 ,2,1,0.,24.0,0.,24.0,0.,24.0,0.,24.0
1979-08-02 12:20:30.710 ,6,1,0.,24.0,0.,24.0,0.,24.0,0.,24.0
1979-08-02 12:20:54.710 ,5,1,0.,24.0,0.,24.0,0.,24.0,0.,24.0
1979-08-02 12:21:18.710 ,1,1,0.,24.0,0.,24.0,0.,24.0,0.,24.0
1979-08-02 12:21:42.710 ,2,1,0.,24.0,0.,24.0,0.,24.0,0.,24.0
1979-08-02 12:22:06.710 ,6,1,0.,24.0,0.,24.0,0.,24.0,0.,24.0
1979-08-02 12:22:30.710 ,5,1,0.,24.0,0.,24.0,0.,24.0,0.,24.0
1979-08-02 12:22:54.710 ,1,1,0.,24.0,0.,24.0,0.,24.0,0.,24.0
1979-08-02 12:23:18.710 ,2,1,0.,24.0,0.,24.0,0.,24.0,0.,24.0
1979-08-02 12:23:42.710 ,6,1,0.,24.0,0.,24.0,0.,24.0,0.,24.0
1979-08-02 12:24:06.710 ,5,1,0.,24.0,0.,24.0,0.,24.0,0.,24.0
1979-08-02 12:24:30.710 ,1,1,0.,24.0,0.,24.0,0.,24.0,0.,24.0
1979-08-02 12:24:54.710 ,2,1,0.,24.0,0.,24.0,0.,24.0,0.,24.0
1979-08-02 12:25:18.710 ,6,1,0.,24.0,0.,24.0,0.,24.0,0.,24.0
1979-08-02 12:25:42.710 ,5,1,0.,24.0,0.,24.0,0.,24.0,0.,24.0
1979-08-02 12:26:06.710 ,1,1,0.,24.0,0.,24.0,0.,24.0,0.,24.0
1979-08-02 12:26:30.710 ,2,1,0.,24.0,0.,24.0,0.,24.0,0.,24.0
1979-08-02 12:26:54.710 ,6,1,0.,24.0,0.,24.0,0.,24.0,0.,24.0
1979-08-02 12:27:18.710 ,5,1,0.,24.0,0.,24.0,0.,24.0,0.,24.0
1979-08-02 12:27:42.710 ,1,1,0.,24.0,0.,24.0,0.,24.0,0.,24.0
1979-08-02 12:28:06.710 ,2,1,0.,24.0,0.,24.0,0.,24.0,0.,24.0
1979-08-02 12:28:30.710 ,6,1,0.,24.0,0.,24.0,0.,24.0,0.,24.0
1979-08-02 12:28:54.710 ,5,1,0.,24.0,0.,24.0,0.,24.0,0.,24.0
1979-08-02 12:29:18.710 ,1,1,0.,24.0,0.,24.0,0.,24.0,0.,24.0
1979-08-02 12:29:42.710 ,0,0,0.,24.0,0.,24.0,0.,24.0,0.,24.0
1979-08-02 12:30:06.710 ,0,0,0.,24.0,0.,24.0,0.,24.0,0.,24.0
1979-08-02 12:30:30.710 ,5,1,0.,24.0,0.,24.0,0.,24.0,0.,24.0
1979-08-02 12:30:54.710 ,5,0,0.,24.0,0.,24.0,0.,24.0,0.,24.0
1979-08-02 12:31:18.710 ,4,1,0.,24.0,0.,24.0,0.,24.0,0.,24.0
1979-08-02 12:31:42.710 ,4,0,0.,24.0,0.,24.0,0.,24.0,0.,24.0
1979-08-02 12:32:06.710 ,3,1,0.,24.0,0.,24.0,0.,24.0,0.,24.0
1979-08-02 12:32:30.710 ,3,0,0.,24.0,0.,24.0,0.,24.0,0.,24.0
1979-08-02 12:33:42.710 ,0,0,,0,,0,,0,,0
1979-08-02 12:34:06.710 ,0,0,0.,24.0,0.,24.0,0.,24.0,0.,24.0
1979-08-02 12:34:30.710 ,0,1,0.,24.0,0.,24.0,0.,24.0,0.,24.0
1979-08-02 12:34:54.710 ,0,0,0.,24.0,0.,24.0,0.,24.0,0.,24.0
1979-08-02 12:35:18.710 ,0,1,0.,24.0,0.,24.0,0.,24.0,0.,24.0
1979-08-02 12:35:42.710 ,0,0,0.,24.0,0.,24.0,0.,24.0,0.,24.0
1979-08-02 12:36:06.710 ,1,1,0.,24.0,0.,24.0,0.,24.0,0.,24.0
1979-08-02 12:36:30.710 ,1,0,0.,24.0,0.,24.0,0.,24.0,0.,24.0
1979-08-02 12:36:54.710 ,2,1,0.,24.0,0.,24.0,0.,24.0,0.,24.0
1979-08-02 12:37:18.710 ,2,0,0.,24.0,0.,24.0,0.,24.0,0.,24.0
1979-08-02 12:37:42.710 ,3,1,0.,24.0,0.,24.0,0.,24.0,0.,24.0
1979-08-02 12:38:06.710 ,3,0,0.,24.0,0.,24.0,0.,24.0,0.,24.0
1979-08-02 12:38:30.710 ,4,1,0.,24.0,0.,24.0,0.,24.0,0.,24.0
1979-08-02 12:38:54.710 ,4,0,0.,24.0,0.,24.0,0.,24.0,0.,24.0
1979-08-02 12:39:18.710 ,5,1,0.,24.0,0.,24.0,0.,24.0,0.,24.0
1979-08-02 12:39:42.710 ,5,0,0.,24.0,0.,24.0,0.,24.0,0.,24.0
1979-08-02 12:40:06.710 ,6,1,0.,24.0,0.,24.0,0.,24.0,0.,24.0
1979-08-02 12:40:30.710 ,6,0,0.,24.0,0.,24.0,0.,24.0,0.,24.0
1979-08-02 12:40:54.710 ,7,1,0.,24.0,0.,24.0,0.,24.0,0.,24.0
1979-08-02 12:41:18.710 ,7,0,0.,24.0,0.,24.0,0.,24.0,0.,24.0
1979-08-02 12:41:42.710 ,7,1,0.,24.0,0.,24.0,0.,24.0,0.,24.0
1979-08-02 12:42:06.710 ,7,0,0.,24.0,0.,24.0,0.,24.0,0.,24.0
1979-08-02 12:42:30.710 ,6,1,0.,24.0,0.,24.0,0.,24.0,0.,24.0
1979-08-02 12:42:54.710 ,6,0,0.,24.0,0.,24.0,0.,24.0,0.,24.0
1979-08-02 12:43:18.710 ,5,1,0.,24.0,0.,24.0,0.,24.0,0.,24.0
1979-08-02 12:43:42.710 ,5,0,0.,24.0,0.,24.0,0.,24.0,0.,24.0
1979-08-02 12:44:06.710 ,4,1,0.,24.0,0.,24.0,0.,24.0,0.,24.0
1979-08-02 12:44:30.710 ,4,0,0.,24.0,0.,24.0,0.,24.0,0.,24.0
1979-08-02 12:44:54.710 ,3,1,0.,24.0,0.,24.0,0.,24.0,0.,24.0
1979-08-02 12:45:18.710 ,3,0,0.,24.0,0.,24.0,0.,24.0,0.,24.0
1979-08-02 12:45:42.710 ,2,1,0.,24.0,0.,24.0,0.,24.0,0.,24.0
1979-08-02 12:46:06.710 ,2,0,0.,24.0,0.,24.0,0.,24.0,0.,24.0
1979-08-02 12:46:30.710 ,1,1,0.,24.0,0.,24.0,0.,24.0,0.,24.0
1979-08-02 12:46:54.710 ,1,0,0.,24.0,0.,24.0,0.,24.0,0.,24.0
1979-08-02 12:47:18.710 ,0,1,0.,24.0,0.,24.0,0.,24.0,0.,24.0
1979-08-02 12:47:42.710 ,0,0,0.,24.0,0.,24.0,0.,24.0,0.,24.0
1979-08-02 12:48:06.710 ,0,1,0.,24.0,0.,24.0,0.,24.0,0.,24.0
1979-08-02 12:48:30.710 ,0,0,0.,24.0,0.,24.0,0.,24.0,0.,24.0
1979-08-02 12:48:54.710 ,1,1,0.,24.0,0.,24.0,0.,24.0,0.,24.0
1979-08-02 12:49:18.710 ,1,0,0.,24.0,0.,24.0,0.,24.0,0.,24.0
1979-08-02 12:49:42.710 ,2,1,0.,24.0,0.,24.0,0.,24.0,0.,24.0
1979-08-02 12:50:06.710 ,2,0,0.,24.0,0.,24.0,0.,24.0,0.,24.0
1979-08-02 12:50:30.710 ,3,1,0.,24.0,0.,24.0,0.,24.0,0.,24.0
1979-08-02 12:50:54.710 ,3,0,0.,24.0,0.,24.0,0.,24.0,0.,24.0
1979-08-02 12:51:18.710 ,4,1,0.,24.0,0.,24.0,0.,24.0,0.,24.0
1979-08-02 12:51:42.710 ,4,0,0.,24.0,0.,24.0,0.,24.0,0.,24.0
1979-08-02 12:52:06.710 ,5,1,1.,24.0,0.,24.0,0.,24.0,0.,24.0
1979-08-02 12:52:30.710 ,5,0,0.,24.0,0.,24.0,0.,24.0,0.,24.0
1979-08-02 12:52:54.710 ,6,1,0.,24.0,0.,24.0,0.,24.0,0.,24.0
1979-08-02 12:53:18.710 ,6,0,0.,24.0,0.,24.0,0.,24.0,0.,24.0
1979-08-02 12:53:42.710 ,7,1,0.,24.0,0.,24.0,0.,24.0,0.,24.0
1979-08-02 12:54:06.710 ,7,0,0.,24.0,0.,24.0,0.,24.0,0.,24.0
1979-08-02 12:54:30.710 ,7,1,0.,24.0,0.,24.0,0.,24.0,0.,24.0
1979-08-02 12:54:54.710 ,7,0,0.,24.0,0.,24.0,0.,24.0,0.,24.0
1979-08-02 12:55:18.710 ,6,1,0.,24.0,0.,24.0,0.,24.0,0.,24.0
1979-08-02 12:55:42.710 ,6,0,0.,24.0,0.,24.0,0.,24.0,0.,24.0
1979-08-02 12:56:06.710 ,5,1,0.,24.0,0.,24.0,0.,24.0,0.,24.0
1979-08-02 12:56:30.710 ,5,0,0.,24.0,0.,24.0,0.,24.0,0.,24.0
1979-08-02 12:56:54.710 ,4,1,0.,24.0,0.,24.0,0.,24.0,0.,24.0
1979-08-02 12:57:18.710 ,4,0,0.,24.0,0.,24.0,0.,24.0,0.,24.0
1979-08-02 12:57:42.710 ,3,1,0.,24.0,0.,24.0,0.,24.0,0.,24.0
1979-08-02 12:58:06.710 ,3,0,1.,24.0,0.,24.0,0.,24.0,0.,24.0
1979-08-02 12:58:30.710 ,2,1,0.,24.0,0.,24.0,0.,24.0,0.,24.0
1979-08-02 12:58:54.710 ,2,0,0.,24.0,0.,24.0,0.,24.0,0.,24.0
1979-08-02 12:59:18.710 ,1,1,0.,24.0,0.,24.0,0.,24.0,0.,24.0
1979-08-02 12:59:42.710 ,1,0,0.,24.0,0.,24.0,0.,24.0,0.,24.0
1979-08-02 13:00:06.710 ,0,1,0.,24.0,0.,24.0,0.,24.0,0.,24.0
1979-08-02 13:00:30.710 ,0,0,0.,24.0,0.,24.0,0.,24.0,0.,24.0
1979-08-02 13:00:54.710 ,0,1,0.,24.0,0.,24.0,0.,24.0,0.,24.0
1979-08-02 13:01:18.710 ,0,0,0.,24.0,0.,24.0,0.,24.0,0.,24.0
1979-08-02 13:01:42.710 ,1,1,0.,24.0,0.,24.0,0.,24.0,0.,24.0
1979-08-02 13:02:06.710 ,1,0,0.,24.0,0.,24.0,0.,24.0,0.,24.0
1979-08-02 13:02:30.710 ,2,1,0.,24.0,0.,24.0,0.,24.0,0.,24.0
1979-08-02 13:02:54.710 ,2,0,0.,24.0,0.,24.0,0.,24.0,0.,24.0
1979-08-02 13:03:18.710 ,3,1,0.,24.0,0.,24.0,0.,24.0,0.,24.0
1979-08-02 13:03:42.710 ,3,0,0.,24.0,0.,24.0,0.,24.0,0.,24.0
1979-08-02 13:04:06.710 ,4,1,0.,24.0,0.,24.0,0.,24.0,0.,24.0
1979-08-02 13:04:30.710 ,4,0,0.,24.0,0.,24.0,0.,24.0,0.,24.0
1979-08-02 13:04:54.710 ,5,1,0.,24.0,0.,24.0,0.,24.0,0.,24.0
1979-08-02 13:05:18.710 ,5,0,0.,24.0,0.,24.0,0.,24.0,0.,24.0
1979-08-02 13:05:42.710 ,6,1,0.,24.0,0.,24.0,0.,24.0,0.,24.0
1979-08-02 13:06:06.710 ,6,0,0.,24.0,0.,24.0,0.,24.0,0.,24.0
1979-08-02 13:06:30.710 ,7,0,0.,24.0,0.,24.0,0.,24.0,0.,24.0
1979-08-02 13:06:54.710 ,7,0,0.,24.0,0.,24.0,0.,24.0,0.,24.0
1979-08-02 13:07:18.710 ,5,1,0.,24.0,0.,24.0,0.,24.0,0.,24.0
1979-08-02 13:07:42.710 ,1,1,0.,24.0,0.,24.0,0.,24.0,0.,24.0
1979-08-02 13:08:06.710 ,2,1,0.,24.0,0.,24.0,0.,24.0,0.,24.0
1979-08-02 13:08:30.710 ,7,1,,0,,0,,0,,0
1979-08-02 13:08:54.710 ,5,1,0.,24.0,0.,24.0,0.,24.0,0.,24.0
1979-08-02 13:09:18.710 ,1,1,0.,24.0,0.,24.0,0.,24.0,0.,24.0
1979-08-02 13:09:42.710 ,2,1,0.,24.0,0.,24.0,0.,24.0,0.,24.0
1979-08-02 13:10:06.710 ,6,1,0.,24.0,0.,24.0,0.,24.0,0.,24.0
1979-08-02 13:10:30.710 ,5,1,0.,24.0,0.,24.0,0.,24.0,0.,24.0
1979-08-02 13:10:54.710 ,1,1,0.,24.0,0.,24.0,0.,24.0,0.,24.0
1979-08-02 13:11:18.710 ,2,1,0.,24.0,0.,24.0,0.,24.0,0.,24.0
1979-08-02 13:11:42.710 ,6,1,0.,24.0,0.,24.0,0.,24.0,0.,24.0
1979-08-02 13:12:06.710 ,5,1,0.,24.0,0.,24.0,0.,24.0,0.,24.0
1979-08-02 13:12:30.710 ,1,1,0.,24.0,0.,24.0,0.,24.0,0.,24.0
1979-08-02 13:12:54.710 ,2,1,0.,24.0,0.,24.0,0.,24.0,0.,24.0
1979-08-02 13:13:18.710 ,6,1,2.,24.0,0.,24.0,0.,24.0,0.,24.0
1979-08-02 13:13:42.710 ,5,1,0.,24.0,0.,24.0,0.,24.0,0.,24.0
1979-08-02 13:14:06.710 ,1,1,1.,24.0,0.,24.0,0.,24.0,0.,24.0
1979-08-02 13:14:30.710 ,2,1,0.,24.0,0.,24.0,0.,24.0,0.,24.0
1979-08-02 13:14:54.710 ,6,1,0.,24.0,0.,24.0,0.,24.0,0.,24.0
1979-08-02 13:15:18.710 ,5,1,0.,24.0,0.,24.0,0.,24.0,0.,24.0
1979-08-02 13:15:42.710 ,1,1,0.,24.0,0.,24.0,0.,24.0,0.,24.0
1979-08-02 13:16:06.710 ,2,1,0.,24.0,0.,24.0,0.,24.0,0.,24.0
1979-08-02 13:16:30.710 ,6,1,0.,24.0,0.,24.0,0.,24.0,0.,24.0
1979-08-02 13:16:54.710 ,5,1,0.,24.0,0.,24.0,0.,24.0,0.,24.0
1979-08-02 13:17:18.710 ,1,1,0.,24.0,0.,24.0,0.,24.0,0.,24.0
1979-08-02 13:17:42.710 ,0,0,0.,24.0,0.,24.0,0.,24.0,0.,24.0
1979-08-02 13:18:06.710 ,0,0,0.,24.0,0.,24.0,0.,24.0,0.,24.0
1979-08-02 13:18:30.710 ,5,1,0.,24.0,0.,24.0,0.,24.0,0.,24.0
1979-08-02 13:18:54.710 ,5,0,0.,24.0,0.,24.0,0.,24.0,0.,24.0
1979-08-02 13:19:18.710 ,4,1,0.,24.0,0.,24.0,0.,24.0,0.,24.0
1979-08-02 13:19:42.710 ,4,0,0.,24.0,0.,24.0,0.,24.0,0.,24.0
1979-08-02 13:20:06.710 ,3,1,0.,24.0,0.,24.0,0.,24.0,0.,24.0
1979-08-02 13:20:30.710 ,3,0,0.,24.0,0.,24.0,0.,24.0,0.,24.0
1979-08-02 13:20:54.710 ,2,1,0.,24.0,0.,24.0,0.,24.0,0.,24.0
1979-08-02 13:21:18.710 ,2,0,0.,24.0,0.,24.0,0.,24.0,0.,24.0
1979-08-02 13:21:42.710 ,1,1,0.,24.0,0.,24.0,0.,24.0,0.,24.0
1979-08-02 13:22:06.710 ,1,0,0.,24.0,0.,24.0,0.,24.0,0.,24.0
1979-08-02 13:22:30.710 ,0,1,0.,24.0,0.,24.0,0.,24.0,0.,24.0
1979-08-02 13:22:54.710 ,0,0,0.,24.0,0.,24.0,0.,24.0,0.,24.0
1979-08-02 13:23:18.710 ,0,1,0.,24.0,0.,24.0,0.,24.0,0.,24.0
1979-08-02 13:23:42.710 ,0,0,0.,24.0,0.,24.0,0.,24.0,0.,24.0
1979-08-02 13:24:06.710 ,1,1,1.,24.0,0.,24.0,0.,24.0,0.,24.0
1979-08-02 13:24:30.710 ,1,0,0.,24.0,0.,24.0,0.,24.0,0.,24.0
1979-08-02 13:24:54.710 ,2,1,0.,24.0,0.,24.0,0.,24.0,0.,24.0
1979-08-02 13:25:18.710 ,2,0,0.,24.0,0.,24.0,0.,24.0,0.,24.0
1979-08-02 13:25:42.710 ,3,1,0.,24.0,0.,24.0,0.,24.0,0.,24.0
1979-08-02 13:26:06.710 ,3,0,0.,24.0,0.,24.0,0.,24.0,0.,24.0
1979-08-02 13:26:30.710 ,4,1,0.,24.0,0.,24.0,0.,24.0,0.,24.0
1979-08-02 13:26:54.710 ,4,0,0.,24.0,0.,24.0,0.,24.0,0.,24.0
1979-08-02 13:27:18.710 ,5,1,0.,24.0,0.,24.0,0.,24.0,0.,24.0
1979-08-02 13:27:42.710 ,5,0,0.,24.0,0.,24.0,0.,24.0,0.,24.0
1979-08-02 13:28:06.710 ,6,1,0.,24.0,0.,24.0,0.,24.0,0.,24.0
1979-08-02 13:28:30.710 ,6,0,0.,24.0,0.,24.0,0.,24.0,0.,24.0
1979-08-02 13:28:54.710 ,7,1,0.,24.0,0.,24.0,0.,24.0,0.,24.0
1979-08-02 13:29:18.710 ,7,0,0.,24.0,0.,24.0,0.,24.0,0.,24.0
1979-08-02 13:29:42.710 ,7,1,0.,24.0,0.,24.0,0.,24.0,0.,24.0
1979-08-02 13:28:30.710 ,6,0,0.,24.0,0.,24.0,0.,24.0,0.,24.0
1979-08-02 13:28:54.710 ,7,1,0.,24.0,0.,24.0,0.,24.0,0.,24.0
1979-08-02 13:29:18.710 ,7,0,0.,24.0,0.,24.0,0.,24.0,0.,24.0
1979-08-02 13:29:42.710 ,7,1,0.,24.0,0.,24.0,0.,24.0,0.,24.0
1979-08-02 13:30:06.710 ,7,0,0.,24.0,0.,24.0,0.,24.0,0.,24.0
1979-08-02 13:30:30.710 ,6,1,0.,24.0,0.,24.0,0.,24.0,0.,24.0
1979-08-02 13:30:54.710 ,6,0,0.,24.0,0.,24.0,0.,24.0,0.,24.0
1979-08-02 13:31:18.710 ,5,1,0.,24.0,0.,24.0,0.,24.0,0.,24.0
1979-08-02 13:31:42.710 ,5,0,0.,24.0,0.,24.0,0.,24.0,0.,24.0
1979-08-02 13:32:06.710 ,4,1,0.,24.0,0.,24.0,0.,24.0,0.,24.0
1979-08-02 13:32:30.710 ,4,0,0.,24.0,0.,24.0,0.,24.0,0.,24.0
1979-08-02 13:32:54.710 ,3,1,0.,24.0,0.,24.0,0.,24.0,0.,24.0
1979-08-02 13:33:18.710 ,3,0,0.,24.0,0.,24.0,0.,24.0,0.,24.0
1979-08-02 13:33:42.710 ,2,1,0.,24.0,0.,24.0,0.,24.0,0.,24.0
1979-08-02 13:34:06.710 ,2,0,0.,24.0,0.,24.0,0.,24.0,0.,24.0
1979-08-02 13:34:30.710 ,1,1,0.,24.0,0.,24.0,0.,24.0,0.,24.0
1979-08-02 13:34:54.710 ,1,0,0.,24.0,0.,24.0,0.,24.0,0.,24.0
1979-08-02 13:35:18.710 ,0,1,0.,24.0,0.,24.0,0.,24.0,0.,24.0
1979-08-02 13:35:42.710 ,0,0,0.,24.0,0.,24.0,0.,24.0,0.,24.0
1979-08-02 13:36:06.710 ,0,1,0.,24.0,0.,24.0,0.,24.0,0.,24.0
1979-08-02 13:36:30.710 ,0,0,0.,24.0,0.,24.0,0.,24.0,0.,24.0
1979-08-02 13:36:56.510 ,1,1,0.,24.0,0.,24.0,0.,24.0,0.,24.0
1979-08-02 13:37:18.710 ,1,0,0.,24.0,0.,24.0,0.,24.0,0.,24.0
1979-08-02 13:37:42.710 ,2,1,0.,24.0,0.,24.0,0.,24.0,0.,24.0
1979-08-02 13:38:06.710 ,2,0,0.,24.0,0.,24.0,0.,24.0,0.,24.0
1979-08-02 13:38:30.710 ,3,1,0.,24.0,0.,24.0,0.,24.0,0.,24.0
1979-08-02 13:38:54.710 ,3,0,0.,24.0,0.,24.0,0.,24.0,0.,24.0
1979-08-02 13:39:18.710 ,4,1,0.,24.0,0.,24.0,0.,24.0,0.,24.0
1979-08-02 13:39:42.710 ,4,0,0.,24.0,0.,24.0,0.,24.0,0.,24.0
1979-08-02 13:40:06.710 ,5,1,0.,24.0,0.,24.0,0.,24.0,0.,24.0
1979-08-02 13:40:30.710 ,5,0,0.,24.0,0.,24.0,0.,24.0,0.,24.0
1979-08-02 13:40:54.710 ,6,1,0.,24.0,0.,24.0,0.,24.0,0.,24.0
1979-08-02 13:41:18.710 ,6,0,0.,24.0,0.,24.0,0.,24.0,0.,24.0
1979-08-02 13:41:42.710 ,7,1,0.,24.0,0.,24.0,0.,24.0,0.,24.0
1979-08-02 13:42:06.710 ,7,0,0.,24.0,0.,24.0,0.,24.0,0.,24.0
1979-08-02 13:42:30.710 ,7,1,0.,24.0,0.,24.0,0.,24.0,0.,24.0
1979-08-02 13:42:54.710 ,7,0,0.,24.0,0.,24.0,0.,24.0,0.,24.0
1979-08-02 13:43:18.710 ,6,1,0.,24.0,0.,24.0,0.,24.0,0.,24.0
1979-08-02 13:43:42.710 ,6,0,0.,24.0,0.,24.0,0.,24.0,0.,24.0
1979-08-02 13:44:06.710 ,5,1,0.,24.0,0.,24.0,0.,24.0,0.,24.0
1979-08-02 13:44:30.710 ,5,0,0.,24.0,0.,24.0,0.,24.0,0.,24.0
1979-08-02 13:44:54.710 ,4,1,0.,24.0,0.,24.0,0.,24.0,0.,24.0
1979-08-02 13:45:18.710 ,4,0,0.,24.0,0.,24.0,0.,24.0,0.,24.0
1979-08-02 13:45:42.710 ,3,1,0.,24.0,0.,24.0,0.,24.0,0.,24.0
1979-08-02 13:46:06.710 ,3,0,0.,24.0,0.,24.0,0.,24.0,0.,24.0
1979-08-02 13:46:30.710 ,2,1,1.,24.0,0.,24.0,0.,24.0,0.,24.0
1979-08-02 13:46:54.710 ,2,0,0.,24.0,0.,24.0,0.,24.0,0.,24.0
1979-08-02 13:47:18.710 ,1,1,0.,24.0,0.,24.0,0.,24.0,0.,24.0
1979-08-02 13:47:42.710 ,1,0,0.,24.0,0.,24.0,0.,24.0,0.,24.0
1979-08-02 13:48:06.710 ,0,1,0.,24.0,0.,24.0,0.,24.0,0.,24.0
1979-08-02 13:48:30.710 ,0,0,0.,24.0,0.,24.0,0.,24.0,0.,24.0
1979-08-02 13:48:54.710 ,0,1,0.,24.0,0.,24.0,0.,24.0,0.,24.0
